Regional Weather Roundup
Issued by NWS

Home | Current Version | Previous Version | Text Only | Print | Product List | Glossary Off
Versions: 1 2 3 4 5 6 7 8 9 10 11 12 13 14 15 16 17 18 19 20 21 22 23 24 25 26 27 28 29 30 31 32 33 34 35 36 37 38 39 40 41 42 43 44 45 46 47 48 49

000
ASUS45 KBOU 230807
RWRCO

WEATHER ROUNDUP FOR COLORADO
NATIONAL WEATHER SERVICE DENVER/BOULDER CO
200 AM MDT WED JUL 23 2014

NOTE: "FAIR" INDICATES FEW OR NO CLOUDS BELOW 12000 FEET WITH NO
SIGNIFICANT WEATHER AND/OR OBSTRUCTIONS TO VISIBILITY.

COZ001>005-013-030-031-230900-
...NORTHWEST COLORADO...

CITY           SKY/WX    TMP DP  RH WIND       PRES   REMARKS
CRAIG          CLEAR     47  37  68 N3        30.34S
HAYDEN         CLEAR     63  36  36 SE15      30.37S
MEEKER         CLEAR     56  32  40 NE3       30.35S
MOUNT WERNER   NOT AVBL
STEAMBOAT SPGS CLEAR     55  38  52 CALM      30.42S
WALDEN         CLEAR     50  37  62 SE5       30.53S
$$

COZ006>008-011-230900-
...WEST CENTRAL VALLEYS...

CITY           SKY/WX    TMP DP  RH WIND       PRES   REMARKS
GRAND JUNCTION PTCLDY    71  26  18 E10       30.19R
MONTROSE       PTCLDY    73  39  29 SE8       30.32R
EAGLE          CLEAR     63  36  36 SW5       30.44R
RIFLE          CLEAR     66  28  24 CALM      30.28S
DELTA          PTCLDY    73  31  21 CALM      30.26R
NUCLA          NOT AVBL
$$

COZ017>023-064>068-230900-
...SOUTHWEST COLORADO...

CITY           SKY/WX    TMP DP  RH WIND       PRES   REMARKS
DURANGO        CLOUDY    68  50  52 W10G22    30.47F
CORTEZ         CLEAR     78  46  32 SE30G41   30.36S
PAGOSA SPRINGS CLOUDY    69  41  35 S5        30.56S
TELLURIDE      PTCLDY    66  37  34 S13G20    30.63S
WOLF CREEK PAS NOT AVBL
$$

COZ009-010-012-014-032>034-037-058>063-230900-
...CENTRAL COLORADO...

CITY           SKY/WX    TMP DP  RH WIND       PRES   REMARKS
ASPEN          CLEAR     70  39  32 SE12      30.50S
BUENA VISTA    CLEAR     55  47  74 CALM      30.61F
COPPER MTN     CLEAR     57  32  38 S26G33    30.88F
BERTHOUD PASS  FAIR      46  34  61 SW13      30.93F
COTTONWOOD PAS CLEAR     61  37  41 NW5       30.74F
GUNNISON       PTCLDY    66  39  37 N7        30.57R
KREMMLING      CLEAR     55  37  50 N5        30.51R
LEADVILLE      CLEAR     46  37  71 N3        30.74R
MONARCH PASS   PTCLDY    46  37  71 S6          N/A
SALIDA         CLEAR    N/A N/A N/A W13       30.64F
SUNLIGHT       CLEAR     61  32  33 SE5       30.75F
WILKERSON PASS MOCLDY    52  36  54 SW8       30.86R
$$

COZ069>075-230900-
...SAN LUIS VALLEY/SANGRE DE CRISTO MOUNTAINS...

CITY           SKY/WX    TMP DP  RH WIND       PRES   REMARKS
ALAMOSA        PTCLDY    57  45  64 E3        30.54R
LA VETA PASS   CLEAR     59  43  55 CALM      30.76R
SAGUACHE       PTCLDY    63  43  48 NW12      30.57F
$$

COZ035-036-038>040-230900-
...NORTHERN COLORADO FRONT RANGE...

CITY           SKY/WX    TMP DP  RH WIND       PRES   REMARKS
DENVER INTL AP PTCLDY    73  47  39 SW13      30.33R
DMNS CITY PARK   N/A     69  48  46 S1        30.33S
AURORA         PTCLDY    68  48  49 SW7       30.36R
FRONT RANGE AP NOT AVBL
ERIE MUNI ARPT CLEAR     71  58  63 W5        30.32R
BOULDER MUN AP CLEAR     73  54  49 E3        30.33R
CENTENNIAL     CLEAR     74  40  29 SW9       30.37S
BROOMFIELD     CLEAR     72  48  43 W3        30.36R
FORT COLLINS   CLEAR     70  59  68 N8        30.34R
LONGMONT       CLEAR     74  59  60 N6        30.33R
$$

COZ041-046-047-076>085-087-088-230900-
...PIKES PEAK/PALMER DIVIDE AND SOUTHERN FOOTHILLS...

CITY           SKY/WX    TMP DP  RH WIND       PRES   REMARKS
COLO. SPRINGS  PTCLDY    72  49  44 E3        30.42S
A. F. ACADEMY  NOT AVBL
ELLICOTT       PTCLDY    69  53  56 CALM      30.40R
FALCON         PTCLDY    66  49  54 SW5       30.48S
FORT CARSON    PTCLDY    70  51  51 NW6       30.38F
LIMON          CLEAR     63  55  75 CALM      30.36S
MONUMENT HILL  PTCLDY    63  43  48 SW7       30.47F
TRINIDAD       CLEAR     70  50  49 W15       30.37S
$$

COZ042>045-048>051-090-091-230900-
...NORTHEAST COLORADO...

CITY           SKY/WX    TMP DP  RH WIND       PRES   REMARKS
GREELEY ARPT   CLEAR     70  59  68 E10       30.30S
AKRON          PTCLDY    68  61  78 SE13      30.32F
BURLINGTON     CLEAR     69  66  90 NE5       30.30S
WRAY             N/A     72  64  76 E10G16    30.28F
STERLING       PTCLDY    73  64  73 SE15G25   30.26F
HOLYOKE        MOCLDY    72  64  78 E12       30.30S
FORT MORGAN    PTCLDY    69  61  75 E13G20    30.31S
$$

COZ086-089-092>099-230900-
...SOUTHEAST COLORADO...

CITY           SKY/WX    TMP DP  RH WIND       PRES   REMARKS
PUEBLO         PTCLDY    76  49  38 NW12      30.28F
LA JUNTA       PTCLDY    71  61  70 N3        30.25R
LAMAR          PTCLDY    72  62  71 E3        30.22R
SPRINGFIELD      N/A     67  62  84 SW3       30.29R
$$


USA.gov is the U.S. government's official web portal to all federal, state and local government web resources and services.